Time,TemperatureF,DewpointF,PressureIn,WindDirection,WindDirectionDegrees,WindSpeedMPH,WindSpeedGustMPH,Humidity,HourlyPrecipIn,Conditions,Clouds,dailyrainin,SoftwareType,DateUTC
2013-09-29 00:15:00,50.8,44.2,29.98,N/A,-737280,0.0,0.0,78,0.00,,,0.00,Wunderground v.1.12,2013-09-29 04:15:00,
2013-09-29 00:16:00,50.8,44.2,29.97,ENE,66,0.0,0.0,78,0.00,,,0.00,Wunderground v.1.12,2013-09-29 04:16:00,
2013-09-29 00:46:00,51.9,44.2,29.98,ENE,67,0.0,0.0,75,0.00,,,0.00,Wunderground v.1.12,2013-09-29 04:46:00,
2013-09-29 01:15:00,51.5,43.8,29.97,N/A,-737280,0.0,0.0,75,0.00,,,0.00,Wunderground v.1.12,2013-09-29 05:15:00,
2013-09-29 01:16:00,51.5,43.5,29.97,ENE,66,0.0,0.0,74,0.00,,,0.00,Wunderground v.1.12,2013-09-29 05:16:00,
2013-09-29 01:46:00,49.8,42.2,29.97,ENE,66,0.0,0.0,75,0.00,,,0.00,Wunderground v.1.12,2013-09-29 05:46:00,
2013-09-29 02:16:00,49.2,41.6,29.96,ENE,66,0.0,0.0,75,0.00,,,0.00,Wunderground v.1.12,2013-09-29 06:16:00,
2013-09-29 02:46:00,49.3,41.4,29.95,ENE,67,1.0,1.0,74,0.00,,,0.00,Wunderground v.1.12,2013-09-29 06:46:00,
2013-09-29 03:15:00,49.1,40.8,29.94,N/A,-737280,0.0,0.0,73,0.00,,,0.00,Wunderground v.1.12,2013-09-29 07:15:00,
2013-09-29 03:16:00,49.1,40.5,29.94,ENE,66,0.0,0.0,72,0.00,,,0.00,Wunderground v.1.12,2013-09-29 07:16:00,
2013-09-29 03:46:00,48.6,40.0,29.94,ENE,67,0.0,0.0,72,0.00,,,0.00,Wunderground v.1.12,2013-09-29 07:46:00,
2013-09-29 04:15:00,48.6,40.0,29.94,ENE,68,1.0,5.0,72,0.00,,,0.00,Wunderground v.1.12,2013-09-29 08:15:00,
2013-09-29 04:16:00,48.6,40.0,29.93,ENE,67,0.0,0.0,72,0.00,,,0.00,Wunderground v.1.12,2013-09-29 08:16:00,
2013-09-29 04:46:00,48.5,39.9,29.93,ENE,67,0.0,0.0,72,0.00,,,0.00,Wunderground v.1.12,2013-09-29 08:46:00,
2013-09-29 05:15:00,48.7,39.7,29.93,ENE,68,0.0,4.0,71,0.00,,,0.00,Wunderground v.1.12,2013-09-29 09:15:00,
2013-09-29 05:16:00,48.8,39.8,29.94,ENE,67,0.0,0.0,71,0.00,,,0.00,Wunderground v.1.12,2013-09-29 09:16:00,
2013-09-29 05:46:00,49.1,40.1,29.93,ENE,67,0.0,0.0,71,0.00,,,0.00,Wunderground v.1.12,2013-09-29 09:46:00,
2013-09-29 06:15:00,48.3,39.7,29.93,N/A,-737280,0.0,0.0,72,0.00,,,0.00,Wunderground v.1.12,2013-09-29 10:15:00,
2013-09-29 06:16:00,48.3,39.3,29.93,ENE,68,0.0,0.0,71,0.00,,,0.00,Wunderground v.1.12,2013-09-29 10:16:00,
2013-09-29 06:46:00,47.1,38.9,29.93,ENE,67,0.0,0.0,73,0.00,,,0.00,Wunderground v.1.12,2013-09-29 10:46:00,
2013-09-29 07:16:00,46.7,38.5,29.93,ENE,67,0.0,0.0,73,0.00,,,0.00,Wunderground v.1.12,2013-09-29 11:16:00,
2013-09-29 07:46:00,48.4,39.8,29.93,ENE,67,0.0,0.0,72,0.00,,,0.00,Wunderground v.1.12,2013-09-29 11:46:00,
2013-09-29 08:15:00,52.0,41.4,29.93,East,90,3.0,8.0,67,0.00,,,0.00,Wunderground v.1.12,2013-09-29 12:15:00,
2013-09-29 08:16:00,52.5,42.6,29.93,East,86,0.0,0.0,69,0.00,,,0.00,Wunderground v.1.12,2013-09-29 12:16:00,
2013-09-29 08:46:00,55.8,43.8,29.93,SSE,168,1.0,1.0,64,0.00,,,0.00,Wunderground v.1.12,2013-09-29 12:46:00,
2013-09-29 09:15:00,58.8,45.4,29.92,South,180,3.0,8.0,61,0.00,,,0.00,Wunderground v.1.12,2013-09-29 13:15:00,
2013-09-29 09:16:00,59.0,46.0,29.92,South,188,4.0,4.0,62,0.00,,,0.00,Wunderground v.1.12,2013-09-29 13:16:00,
2013-09-29 09:46:00,62.5,48.0,29.92,South,183,3.0,3.0,59,0.00,,,0.00,Wunderground v.1.12,2013-09-29 13:46:00,
2013-09-29 10:15:00,65.2,48.6,29.92,South,180,2.0,10.0,55,0.00,,,0.00,Wunderground v.1.12,2013-09-29 14:15:00,
2013-09-29 10:46:00,68.2,50.4,29.91,South,191,2.0,2.0,53,0.00,,,0.00,Wunderground v.1.12,2013-09-29 14:46:00,
2013-09-29 11:15:00,69.3,49.9,29.90,South,180,4.0,13.0,50,0.00,,,0.00,Wunderground v.1.12,2013-09-29 15:15:00,
2013-09-29 11:16:00,69.3,50.4,29.90,SW,225,2.0,2.0,51,0.00,,,0.00,Wunderground v.1.12,2013-09-29 15:16:00,
2013-09-29 11:46:00,70.8,51.2,29.90,SSW,203,2.0,2.0,50,0.00,,,0.00,Wunderground v.1.12,2013-09-29 15:46:00,
2013-09-29 12:15:00,72.4,51.0,29.89,South,180,3.0,14.0,47,0.00,,,0.00,Wunderground v.1.12,2013-09-29 16:15:00,
2013-09-29 12:16:00,72.3,50.4,29.89,SSW,200,1.0,1.0,46,0.00,,,0.00,Wunderground v.1.12,2013-09-29 16:16:00,
2013-09-29 12:46:00,73.8,50.5,29.88,West,270,4.0,4.0,44,0.00,,,0.00,Wunderground v.1.12,2013-09-29 16:46:00,
2013-09-29 13:16:00,75.3,52.5,29.87,West,272,0.0,0.0,45,0.00,,,0.00,Wunderground v.1.12,2013-09-29 17:16:00,
2013-09-29 13:46:00,75.7,52.2,29.85,West,266,0.0,0.0,44,0.00,,,0.00,Wunderground v.1.12,2013-09-29 17:46:00,
2013-09-29 14:16:00,75.4,51.3,29.84,South,180,1.0,1.0,43,0.00,,,0.00,Wunderground v.1.12,2013-09-29 18:16:00,
2013-09-29 14:46:00,74.7,50.7,29.82,South,189,16.0,16.0,43,0.00,,,0.00,Wunderground v.1.12,2013-09-29 18:46:00,
2013-09-29 15:15:00,74.6,51.9,29.81,South,180,3.0,14.0,45,0.00,,,0.00,Wunderground v.1.12,2013-09-29 19:15:00,
2013-09-29 15:16:00,74.8,52.0,29.81,SSW,210,2.0,2.0,45,0.00,,,0.00,Wunderground v.1.12,2013-09-29 19:16:00,
2013-09-29 15:46:00,74.5,50.5,29.80,South,190,0.0,0.0,43,0.00,,,0.00,Wunderground v.1.12,2013-09-29 19:46:00,
2013-09-29 16:15:00,73.5,52.0,29.79,West,270,2.0,10.0,47,0.00,,,0.00,Wunderground v.1.12,2013-09-29 20:15:00,
2013-09-29 16:16:00,73.3,50.1,29.80,West,271,3.0,3.0,44,0.00,,,0.00,Wunderground v.1.12,2013-09-29 20:16:00,
2013-09-29 16:46:00,72.7,50.1,29.79,SSW,192,3.0,3.0,45,0.00,,,0.00,Wunderground v.1.12,2013-09-29 20:46:00,
2013-09-29 17:16:00,71.3,50.6,29.78,WSW,247,0.0,0.0,48,0.00,,,0.00,Wunderground v.1.12,2013-09-29 21:16:00,
2013-09-29 17:46:00,68.9,49.5,29.78,West,266,0.0,0.0,50,0.00,,,0.00,Wunderground v.1.12,2013-09-29 21:46:00,
2013-09-29 18:15:00,66.7,49.5,29.78,West,270,0.0,4.0,54,0.00,,,0.00,Wunderground v.1.12,2013-09-29 22:15:00,
2013-09-29 18:46:00,63.6,48.1,29.78,West,266,0.0,0.0,57,0.00,,,0.00,Wunderground v.1.12,2013-09-29 22:46:00,
2013-09-29 19:15:00,60.8,47.3,29.80,N/A,-737280,0.0,0.0,61,0.00,,,0.00,Wunderground v.1.12,2013-09-29 23:15:00,
2013-09-29 19:16:00,60.6,46.6,29.79,West,266,0.0,0.0,60,0.00,,,0.00,Wunderground v.1.12,2013-09-29 23:16:00,
2013-09-29 19:46:00,58.3,46.2,29.80,West,266,0.0,0.0,64,0.00,,,0.00,Wunderground v.1.12,2013-09-29 23:46:00,
2013-09-29 20:15:00,56.1,45.3,29.81,N/A,-737280,0.0,0.0,67,0.00,,,0.00,Wunderground v.1.12,2013-09-30 00:15:00,
2013-09-29 20:16:00,55.7,44.1,29.80,West,266,0.0,0.0,65,0.00,,,0.00,Wunderground v.1.12,2013-09-30 00:16:00,
2013-09-29 20:46:00,54.7,44.0,29.81,WNW,288,0.0,0.0,67,0.00,,,0.00,Wunderground v.1.12,2013-09-30 00:46:00,
2013-09-29 21:15:00,53.4,43.9,29.82,N/A,-737280,0.0,0.0,70,0.00,,,0.00,Wunderground v.1.12,2013-09-30 01:15:00,
2013-09-29 21:16:00,53.5,43.6,29.81,WNW,288,0.0,0.0,69,0.00,,,0.00,Wunderground v.1.12,2013-09-30 01:16:00,
2013-09-29 21:46:00,52.6,43.5,29.82,WNW,287,0.0,0.0,71,0.00,,,0.00,Wunderground v.1.12,2013-09-30 01:46:00,
2013-09-29 22:15:00,51.7,43.3,29.81,N/A,-737280,0.0,0.0,73,0.00,,,0.00,Wunderground v.1.12,2013-09-30 02:15:00,
2013-09-29 22:46:00,51.0,42.6,29.81,WNW,288,0.0,0.0,73,0.00,,,0.00,Wunderground v.1.12,2013-09-30 02:46:00,
2013-09-29 23:15:00,50.2,41.9,29.81,N/A,-737280,0.0,0.0,73,0.00,,,0.00,Wunderground v.1.12,2013-09-30 03:15:00,
2013-09-29 23:16:00,50.0,41.7,29.81,WNW,288,0.0,0.0,73,0.00,,,0.00,Wunderground v.1.12,2013-09-30 03:16:00,
2013-09-29 23:46:00,49.8,41.5,29.81,WNW,288,0.0,0.0,73,0.00,,,0.00,Wunderground v.1.12,2013-09-30 03:46:00,